Flag for United Kingdom Weather past 2 weeks in Huddersfield, England, United Kingdom

Now
72 °F

Scattered clouds.


Feels Like: 72 °F
Forecast: 49 / 68 °F
Wind: 14 mph from Southwest

Location: Leeds And Bradford

Current Time: Jul 4, 2015 at 4:18:14 PM

Latest Report: Jul 4, 2015 at 3:50 PM


Visibility: N/A

Pressure: 30.01 "Hg

Humidity: 78%

Dew point: 64 °F

Location of HuddersfieldLocation

Historic Weather in Huddersfield — Graph

°F

Huddersfield temperature yesterday

Maximum temperature yesterday: 72 °F (at 2:20 PM)
Minimum temperature yesterday: 50 °F (at 2:50 AM)
Average temperature yesterday: 60 °F

Past Weeks' High & Low Weather Summary

 TemperatureHumidityPressure
High86 °F (Jul 1, 5:20 PM)100% (Jun 20, 6:20 AM)30.30 "Hg (Jun 20, 6:20 AM)
Low45 °F (Jun 22, 3:50 AM)46% (Jun 27, 4:20 PM)29.77 "Hg (Jun 22, 4:20 AM)
Average59 °F80%30.03 "Hg
* Reported Jun 19 3:20 PM — Jul 4 3:20 PM, Huddersfield, Weather by CustomWeather, © 2015

Note: Actual official high and low records may vary slightly from our data, if they occured in-between our weather recording intervals... More about our weather records

Advertising

Huddersfield weather history for previous 24 hours

 ConditionsComfort  
Time TempWeatherWind HumidityBarometerVisibility
3:20 PM
Sat, Jul 4
75 °FScattered clouds.16 mph69%30.01 "HgN/A
2:50 PM73 °FScattered clouds.15 mph74%29.98 "HgN/A
2:20 PM73 °FScattered clouds.15 mph65%29.98 "HgN/A
1:50 PM73 °FScattered clouds.15 mph61%29.98 "HgN/A
1:20 PM70 °FPartly sunny.9 mph78%29.98 "Hg6 mi
12:50 PM70 °FPartly sunny.7 mph83%29.98 "Hg6 mi
12:20 PM66 °FFog.5 mph100%29.98 "Hg2 mi
11:50 AM63 °FFog.3 mph100%29.98 "Hg1 mi
11:20 AM61 °FFog.5 mphN/A29.98 "Hg1 mi
10:50 AM59 °FFog.6 mphN/A29.98 "Hg1 mi
10:20 AM59 °FDrizzle. Fog.5 mph100%29.98 "Hg0 mi
9:50 AM57 °FDrizzle. Fog.7 mphN/A29.98 "Hg0 mi
9:20 AM57 °FDrizzle. Fog.5 mph100%29.98 "Hg0 mi
8:50 AM57 °FFog.6 mph100%29.98 "Hg0 mi
8:20 AM57 °FFog.8 mphN/A29.98 "Hg0 mi
7:50 AM57 °FFog.5 mph100%29.98 "Hg0 mi
7:20 AM57 °FFog.8 mphN/A29.98 "Hg0 mi
6:50 AM55 °FFog.8 mph100%29.98 "Hg0 mi
6:20 AM55 °FFog.9 mph100%29.98 "Hg0 mi
5:50 AM55 °FFog.9 mph100%29.98 "Hg0 mi
5:20 AM55 °FLight rain. Fog.13 mph100%30.01 "Hg1 mi
4:50 AM55 °FLight rain. Fog.10 mph100%30.01 "Hg1 mi
4:20 AM55 °FStrong thunderstorms. Passing clouds.15 mph100%30.01 "Hg1 mi
3:50 AM55 °FStrong thunderstorms. Passing clouds.10 mph100%30.07 "Hg1 mi
3:20 AM55 °FThunderstorms. Passing clouds.12 mph100%30.07 "Hg1 mi
2:50 AM54 °FSprinkles. Passing clouds.9 mph100%30.07 "Hg2 mi
2:20 AM54 °FFog.9 mph100%30.07 "Hg2 mi
1:50 AM54 °FPassing clouds.9 mph100%30.09 "Hg5 mi
1:20 AM54 °FPassing clouds.8 mph100%30.09 "HgN/A
12:50 AM55 °FPassing clouds.9 mph94%30.12 "HgN/A
12:20 AM55 °FPassing clouds.9 mph94%30.15 "HgN/A
11:50 PM
Fri, Jul 3
55 °FThundershowers. Passing clouds.10 mph94%30.15 "HgN/A
11:20 PM55 °FThundershowers. Passing clouds.9 mph94%30.18 "HgN/A
10:50 PM55 °FClear.9 mph94%30.18 "Hg10 mi
10:20 PM57 °FSunny.10 mph88%30.18 "Hg10 mi
9:50 PM57 °FSunny.9 mph88%30.21 "Hg10 mi
9:20 PM59 °FSunny.12 mph82%30.21 "Hg10 mi
8:50 PM61 °FSunny.12 mph77%30.21 "Hg10 mi
8:20 PM61 °FPassing clouds.12 mph77%30.21 "HgN/A
7:50 PM63 °FSunny.12 mph73%30.21 "Hg10 mi
7:20 PM64 °FPassing clouds.15 mph68%30.21 "HgN/A
6:50 PM66 °FPassing clouds.16 mph68%30.21 "HgN/A
6:20 PM66 °FSunny.16 mph73%30.21 "Hg10 mi
5:50 PM68 °FPassing clouds.15 mph73%30.21 "HgN/A
5:20 PM70 °FPassing clouds.12 mph69%30.21 "HgN/A
4:50 PM72 °FPassing clouds.10 mph65%30.24 "HgN/A
4:20 PM72 °FPassing clouds.12 mph65%30.24 "HgN/A
Weather by CustomWeather, © 2015

See weather overviewHow to use our weather pages